Date String (YYYY-MM-DD hh:mm:ss) UTC,Instrument flags,absolute air pressure of the measurement (hPa),sample flow rate (lpm),inlet stack bypass flow (lpm),air temperature of the measurement (°C),ambient temperature measured by the external sensor (°C),aerosol sample conditioner tube jacket temperature (°C),OPC LED temperature (°C),internal box temperature (°C),relative humidity of the measurement (%),span deviation,mass concentration of particles derived from Lorenz-Mie calculation of OPC scattering (μg/m³),mass concentration of particles derived from Lorenz-Mie calculation of OPC scattering (μg/m³),mass concentration of particles derived from Lorenz-Mie calculation of OPC scattering (μg/m³)
DateTimeUTC,F1_M11,P_M11,Q1_M11,Q2_M11,T1_M11,T2_M11,T3_M11,T4_M11,T5_M11,U1_M11,ZSPAN_M11,X0_M11,X2_M11,X1_M11
2023-07-08 23:00:00,SystemResetWarning,0830.0,5.00,000.00,030.7,026.9,000.0,038.3,031.2,35.5,-001.7,0011.31,0006.55,0005.99
2023-07-08 23:01:00,SystemResetWarning,0830.1,5.03,000.00,031.1,027.2,000.0,038.4,031.4,34.9,-001.9,0011.50,0006.58,0006.03
2023-07-08 23:02:00,SystemResetWarning,0830.0,4.98,000.00,031.5,027.5,000.0,038.5,031.5,33.7,-002.0,0011.55,0006.62,0006.06
2023-07-08 23:03:00,SystemResetWarning,0830.0,5.00,000.00,031.7,027.7,000.0,038.6,031.5,33.0,-002.0,0011.39,0006.68,0006.07
2023-07-08 23:04:00,SystemResetWarning,0829.8,5.01,000.00,031.8,027.9,000.0,038.7,031.5,32.4,-001.9,0011.09,0006.73,0006.08
2023-07-08 23:05:00,SystemResetWarning,0829.7,4.98,000.00,031.9,028.1,000.0,038.9,031.6,31.6,-002.3,0011.25,0006.75,0006.06
2023-07-08 23:06:00,SystemResetWarning,0829.8,5.01,000.00,032.0,028.2,000.0,039.1,031.6,30.4,-002.3,0010.91,0006.68,0006.03
2023-07-08 23:07:00,SystemResetWarning,0829.7,5.01,000.00,032.0,028.0,000.0,039.2,031.7,29.2,-002.0,0010.64,0006.59,0005.97
2023-07-08 23:08:00,SystemResetWarning,0829.7,4.98,000.00,032.1,026.5,000.0,039.1,031.6,29.4,-001.7,0010.82,0006.50,0005.91
2023-07-08 23:09:00,SystemResetWarning,0829.6,5.01,000.00,032.0,025.6,000.0,039.1,031.4,30.3,-000.7,0010.74,0006.45,0005.86
2023-07-08 23:10:00,SystemResetWarning,0829.6,5.01,000.00,031.9,025.6,000.0,039.2,031.1,31.0,-000.1,0010.74,0006.41,0005.81
2023-07-08 23:11:00,SystemResetWarning,0829.6,4.99,000.00,031.7,025.9,000.0,039.3,031.1,30.0,0000.0,0010.79,0006.36,0005.75
2023-07-08 23:12:00,SystemResetWarning,0829.3,5.00,000.00,031.6,026.4,000.0,039.3,031.1,30.4,0000.6,0010.67,0006.31,0005.68
2023-07-08 23:13:00,SystemResetWarning,0829.3,5.01,000.00,031.6,026.7,000.0,039.4,031.2,26.7,0001.2,0010.65,0006.26,0005.63
2023-07-08 23:14:00,SystemResetWarning,0829.2,5.00,000.00,031.5,027.1,000.0,039.4,031.3,25.4,0001.4,0010.52,0006.20,0005.59
2023-07-08 23:15:00,SystemResetWarning,0829.2,4.98,000.00,031.5,027.4,000.0,039.4,031.4,27.6,0001.4,0010.50,0006.08,0005.55
2023-07-08 23:16:00,SystemResetWarning,0829.3,5.00,000.00,031.5,027.6,000.0,039.5,031.4,29.1,0001.4,0010.34,0006.02,0005.51
2023-07-08 23:17:00,SystemResetWarning,0829.3,5.01,000.00,031.5,027.8,000.0,039.5,031.5,31.3,0000.9,0010.37,0006.01,0005.48
2023-07-08 23:18:00,SystemResetWarning,0829.2,5.01,000.00,031.4,028.0,000.0,039.5,031.5,29.2,0000.7,0010.40,0006.01,0005.47
2023-07-08 23:19:00,SystemResetWarning,0829.2,4.99,000.00,031.4,028.2,000.0,039.5,031.6,28.6,0000.9,0009.76,0005.94,0005.40
2023-07-08 23:20:00,SystemResetWarning,0829.3,4.99,000.00,031.4,027.8,000.0,039.4,031.6,30.9,0000.3,0009.57,0005.90,0005.34
2023-07-08 23:21:00,SystemResetWarning,0829.3,5.00,000.00,031.4,026.2,000.0,039.3,031.4,30.7,-000.8,0009.59,0005.88,0005.29
2023-07-08 23:22:00,SystemResetWarning,0829.4,5.01,000.00,031.3,025.6,000.0,039.2,031.2,30.1,-001.2,0009.40,0005.86,0005.28
2023-07-08 23:23:00,SystemResetWarning,0829.4,5.01,000.00,031.1,025.7,000.0,039.2,031.0,28.8,-001.0,0009.21,0005.85,0005.29
2023-07-08 23:24:00,SystemResetWarning,0829.4,4.99,000.00,031.0,026.0,000.0,039.2,031.0,31.2,-001.3,0009.17,0005.83,0005.27
2023-07-08 23:25:00,SystemResetWarning,0829.4,4.99,000.00,030.9,026.5,000.0,039.2,031.1,32.0,-001.2,0009.20,0005.79,0005.23
2023-07-08 23:26:00,SystemResetWarning,0829.5,4.99,000.00,030.9,026.8,000.0,039.2,031.2,34.0,-000.8,0009.26,0005.84,0005.24
2023-07-08 23:27:00,SystemResetWarning,0829.6,5.00,000.00,030.8,027.2,000.0,039.2,031.2,34.0,0000.0,0009.24,0005.84,0005.24
2023-07-08 23:28:00,SystemResetWarning,0829.7,5.01,000.00,030.8,027.4,000.0,039.2,031.3,33.4,0000.1,0009.19,0005.82,0005.24
2023-07-08 23:29:00,SystemResetWarning,0829.6,5.01,000.00,030.8,027.7,000.0,039.2,031.3,34.1,0000.5,0009.19,0005.81,0005.23
2023-07-08 23:30:00,SystemResetWarning,0829.6,5.00,000.00,030.8,027.9,000.0,039.2,031.4,33.9,0000.1,0009.21,0005.85,0005.29
2023-07-08 23:31:00,SystemResetWarning,0829.7,4.98,000.00,030.8,028.0,000.0,039.2,031.4,33.5,0000.0,0009.34,0005.94,0005.39
2023-07-08 23:32:00,SystemResetWarning,0829.7,5.00,000.00,030.8,028.2,000.0,039.1,031.5,33.6,0001.5,0010.05,0006.07,0005.52
2023-07-08 23:33:00,SystemResetWarning,0829.7,5.00,000.00,030.8,028.1,000.0,039.1,031.5,34.1,0002.4,0010.41,0006.16,0005.61
2023-07-08 23:34:00,SystemResetWarning,0829.7,5.00,000.00,030.8,026.6,000.0,039.0,031.4,33.5,0002.3,0010.52,0006.19,0005.65
2023-07-08 23:35:00,SystemResetWarning,0829.7,5.01,000.00,030.7,025.6,000.0,038.8,031.3,33.2,0002.2,0010.70,0006.30,0005.75
2023-07-08 23:36:00,SystemResetWarning,0829.7,5.01,000.00,030.6,025.6,000.0,038.8,031.0,33.9,0002.0,0010.77,0006.40,0005.84
2023-07-08 23:37:00,SystemResetWarning,0829.7,4.99,000.00,030.4,025.9,000.0,038.8,030.9,34.5,0001.7,0010.60,0006.42,0005.89
2023-07-08 23:38:00,SystemResetWarning,0829.6,4.99,000.00,030.4,026.3,000.0,038.8,031.0,35.2,0001.0,0010.72,0006.49,0005.95
2023-07-08 23:39:00,SystemResetWarning,0829.7,5.03,000.00,030.5,026.7,000.0,038.8,031.1,34.9,0000.4,0010.83,0006.58,0006.02
2023-07-08 23:40:00,SystemResetWarning,0829.6,4.97,000.00,030.7,027.0,000.0,038.8,031.3,33.4,-000.3,0010.97,0006.66,0006.09
2023-07-08 23:41:00,SystemResetWarning,0829.4,5.02,000.00,030.8,027.3,000.0,038.8,031.3,33.2,-000.6,0012.24,0006.71,0006.13
2023-07-08 23:42:00,SystemResetWarning,0829.2,5.00,000.00,030.9,027.6,000.0,038.8,031.4,33.0,-000.7,0012.37,0006.74,0006.14
2023-07-08 23:43:00,SystemResetWarning,0829.1,5.00,000.00,030.9,027.8,000.0,038.9,031.4,33.7,-001.2,0011.76,0006.68,0006.08
2023-07-08 23:44:00,SystemResetWarning,0829.0,4.98,000.00,031.0,028.0,000.0,038.9,031.4,34.9,-001.7,0011.34,0006.60,0006.01
2023-07-08 23:45:00,SystemResetWarning,0828.8,5.02,000.00,031.1,028.1,000.0,039.0,031.5,35.2,-001.9,0011.26,0006.56,0005.96
2023-07-08 23:46:00,SystemResetWarning,0828.8,5.01,000.00,031.3,028.2,000.0,039.0,031.7,35.0,-001.3,0011.15,0006.51,0005.90
2023-07-08 23:47:00,SystemResetWarning,0828.8,4.96,000.00,031.5,027.3,000.0,039.0,031.7,34.2,-000.9,0011.10,0006.44,0005.85
2023-07-08 23:48:00,SystemResetWarning,0828.8,5.02,000.00,031.6,025.9,000.0,038.9,031.5,34.3,0000.0,0011.11,0006.42,0005.81
2023-07-08 23:49:00,SystemResetWarning,0828.8,5.01,000.00,031.6,025.6,000.0,038.9,031.2,34.0,0000.0,0010.99,0006.36,0005.77
2023-07-08 23:50:00,SystemResetWarning,0828.8,5.00,000.00,031.5,025.8,000.0,039.0,031.1,32.1,0000.0,0010.92,0006.33,0005.72
2023-07-08 23:51:00,SystemResetWarning,0829.0,4.99,000.00,031.4,026.2,000.0,039.1,031.1,32.0,0000.0,0010.89,0006.31,0005.69
2023-07-08 23:52:00,SystemResetWarning,0829.1,4.99,000.00,031.4,026.6,000.0,039.2,031.2,31.5,0000.0,0009.67,0006.27,0005.66
2023-07-08 23:53:00,SystemResetWarning,0829.3,5.00,000.00,031.4,027.0,000.0,039.2,031.3,30.8,0000.0,0009.73,0006.22,0005.63
2023-07-08 23:54:00,SystemResetWarning,0829.4,5.00,000.00,031.4,027.3,000.0,039.3,031.4,31.8,0000.0,0010.12,0006.22,0005.61
2023-07-08 23:55:00,SystemResetWarning,0829.4,4.99,000.00,031.3,027.6,000.0,039.3,031.4,32.2,0000.0,0010.10,0006.21,0005.58
2023-07-08 23:56:00,SystemResetWarning,0829.5,5.00,000.00,031.3,027.8,000.0,039.3,031.5,32.8,0000.0,0010.20,0006.18,0005.56
2023-07-08 23:57:00,SystemResetWarning,0829.6,5.01,000.00,031.3,028.0,000.0,039.4,031.5,32.4,0000.0,0010.16,0006.13,0005.53
2023-07-08 23:58:00,SystemResetWarning,0829.7,5.01,000.00,031.3,028.2,000.0,039.4,031.6,29.4,0000.0,0010.06,0006.07,0005.50
2023-07-08 23:59:00,SystemResetWarning,0829.6,5.00,000.00,031.3,027.7,000.0,039.3,031.6,28.4,0000.0,0010.12,0006.04,0005.46
